Location: Alfortville
(48.8058°N, 2.4204°E)
Time: 05:09:31
(UTC+00:00)

USA 229 DEB - Pass Details

Date: 01 June 2022
Orbit: 934 x 1278 km, 63.4° (Epoch: 24 May)

Event Time Altitude Azimuth Distance (km) Brightness Sun altitude
Rises 21:37:20 0° 317° (NW) 3,912 8.4 -13.3°
Reaches altitude 10° 21:40:00 10° 321° (NW) 3,001 7.5 -13.5°
Maximum altitude 21:47:07 58° 40° (NE) 1,368 4.4 -14.1°
Enters shadow 21:54:17 12° 118° (ESE) 3,056 5.6 -14.6°
